Location: Gunnison Valley Observatory
(38.5087°N, 106.9386°W)
Time: 00:58:48
(UTC-07:00)

Amateur Radio Satellites - All Passes

Search period start: 18 January 2017 00:28
Search period end: 19 January 2017 00:28
Location: Gunnison Valley Observatory, 38.5087°N, 106.9386°W

Satellite Date Start Highest point End Downlink Frequencies (MHz)
Time Altitude Azimuth
Oscar 19 18 Jan 00:30:21 00:33:39 17° 92° (E) 00:36:53 437.125/150
QB50P1 18 Jan 00:32:02 00:35:51 33° 289° (WNW) 00:39:39 145.935-145.965
POLYITAN 1 18 Jan 00:35:19 00:39:03 31° 289° (WNW) 00:42:46 437.675
QB50P2 18 Jan 00:36:33 00:40:10 28° 290° (WNW) 00:43:47 145.880/145.840
VELOX 1 18 Jan 00:39:36 00:42:24 16° 267° (W) 00:45:13 145.980
Cosmos 2491 18 Jan 00:40:14 00:44:41 15° 77° (ENE) 00:49:06 435.465 / 435.565
AO-85 18 Jan 00:45:14 00:47:40 16° 249° (WSW) 00:50:07 145.980
50 SAT 18 Jan 00:47:14 00:48:36 12° 268° (W) 00:49:57 437.505
BEESAT 18 Jan 00:50:09 00:52:46 15° 63° (ENE) 00:55:24 436.000
SWISSCUBE 18 Jan 00:51:01 00:54:02 17° 64° (ENE) 00:57:04 437.505
POPSAT HIP 1 18 Jan 00:59:26 01:02:19 18° 293° (WNW) 01:05:11 437.405
Cosmos 2504 18 Jan 00:59:50 01:04:51 19° 66° (ENE) 01:09:44 435.465 / 435.565
BEESAT 2 18 Jan 01:04:55 01:06:02 11° 42° (NE) 01:07:10 435.950
AIST 1 18 Jan 01:13:39 01:17:53 57° 81° (E) 01:22:02
DUCHIFAT 1 18 Jan 01:14:24 01:16:42 15° 294° (WNW) 01:19:00 145.980
PCSat 18 Jan 01:18:31 01:23:55 88° 119° (ESE) 01:29:23 145.827
NANOSAT C BR1 18 Jan 01:19:00 01:20:39 12° 296° (WNW) 01:22:17 145.865
DX 1 18 Jan 01:22:53 01:24:11 11° 269° (W) 01:25:29 434.975-435.025
UKube-1 18 Jan 01:26:47 01:28:56 13° 268° (W) 01:31:05 .
ISS 18 Jan 01:30:41 01:31:31 11° 346° (NNW) 01:32:20 145.825
TISAT 1 18 Jan 01:30:50 01:34:43 37° 262° (W) 01:38:37 437.305
YUBILEINY 18 Jan 01:46:08 01:55:01 82° 83° (E) 02:03:47 435.215
ITUPSAT 1 18 Jan 01:48:48 01:53:27 57° 73° (ENE) 01:58:08 437.325
Gurwin Techsat 1B 18 Jan 01:59:27 02:04:45 66° 102° (ESE) 02:10:01 435.225
BUGSAT 1 18 Jan 02:01:26 02:02:46 11° 296° (WNW) 02:04:08 437.445
BEESAT 3 18 Jan 02:01:45 02:05:47 86° 61° (ENE) 02:09:45 437.485
Oscar 19 18 Jan 02:08:13 02:13:15 53° 288° (WNW) 02:18:15 437.125/150
RS-15 18 Jan 02:10:08 02:20:58 37° 320° (NW) 02:32:12 29.354- 29.394
AO-7 18 Jan 02:10:54 02:15:22 15° 90° (E) 02:19:48 29.400- 29.500
PHONESAT 2.4 18 Jan 02:18:09 02:19:44 16° 151° (SSE) 02:21:19 2401.200-2431.200
BEESAT 18 Jan 02:25:23 02:30:03 57° 259° (W) 02:34:45 436.000
M-CUBED/EXP-1 PRIME 18 Jan 02:25:41 02:29:33 30° 66° (ENE) 02:33:14 437.505
SWISSCUBE 18 Jan 02:26:49 02:31:24 49° 260° (W) 02:36:01 437.505
Cosmos 2491 18 Jan 02:31:24 02:40:07 86° 96° (E) 02:48:52 435.465 / 435.565
BEESAT 2 18 Jan 02:40:20 02:44:23 85° 238° (WSW) 02:48:24 435.950
ITAMSAT 1 18 Jan 02:45:02 02:49:46 34° 98° (E) 02:54:28 435.822/435.867
MOZHAYETS 4 18 Jan 02:45:38 02:50:08 65° 75° (ENE) 02:54:42
Cosmos 2504 18 Jan 02:51:38 02:59:01 70° 267° (W) 03:06:06 435.465 / 435.565
AUBIESAT-1 18 Jan 03:04:16 03:08:37 64° 71° (ENE) 03:12:43 437.475
PCSat 18 Jan 03:04:58 03:08:03 15° 316° (NW) 03:11:09 145.827
STARS 18 Jan 03:11:45 03:14:43 18° 66° (ENE) 03:17:41 437.465
CUBESAT XI-V 18 Jan 03:24:41 03:28:30 25° 68° (ENE) 03:32:20 437.345
ITUPSAT 1 18 Jan 03:29:18 03:31:37 13° 268° (W) 03:33:57 437.325
CUSAT 1 18 Jan 03:38:32 03:43:09 90° 279° (W) 03:49:21 437.405
Gurwin Techsat 1B 18 Jan 03:41:03 03:44:06 16° 298° (WNW) 03:47:08 435.225
YUBILEINY 18 Jan 03:45:03 03:50:39 19° 281° (WNW) 03:56:14 435.215
KKS-1 18 Jan 03:45:24 03:49:52 85° 258° (WSW) 03:54:20 437.445
PHONESAT 2.4 18 Jan 03:51:23 03:53:41 84° 347° (NNW) 03:56:00 2401.200-2431.200
M-CUBED/EXP-1 PRIME 18 Jan 04:00:18 04:03:57 24° 259° (WSW) 04:07:27 437.505
AO-7 18 Jan 04:00:44 04:09:10 85° 107° (ESE) 04:17:30 29.400- 29.500
DANDE 18 Jan 04:03:17 04:06:25 32° 89° (E) 04:10:25 436.750
AIST 2 18 Jan 04:14:10 04:17:28 21° 49° (NE) 04:20:43 435.215
ITAMSAT 1 18 Jan 04:24:43 04:29:04 27° 293° (WNW) 04:33:24 435.822/435.867
MOZHAYETS 4 18 Jan 04:26:34 04:27:43 11° 270° (W) 04:28:52
RS-15 18 Jan 04:30:40 04:38:43 19° 354° (N) 04:46:48 29.354- 29.394
Cosmos 2491 18 Jan 04:32:27 04:38:06 19° 296° (WNW) 04:43:47 435.465 / 435.565
BRITE-PL 18 Jan 04:38:00 04:42:34 37° 96° (E) 04:46:47 437.365/2234.400
AUBIESAT-1 18 Jan 04:42:18 04:43:14 11° 263° (W) 04:44:09 437.475
ISS 18 Jan 04:44:07 04:46:43 22° 27° (NNE) 04:49:20 145.825
STARS 18 Jan 04:46:39 04:50:45 38° 261° (W) 04:54:52 437.465
HORYU 2 18 Jan 04:48:37 04:51:54 20° 95° (E) 04:55:11 437.375
GOMX 1 18 Jan 04:56:29 04:59:46 20° 93° (E) 05:02:55 467.674
CUBESAT XI-V 18 Jan 05:01:35 05:05:43 30° 264° (W) 05:09:52 437.345
CUTE-I 18 Jan 05:16:33 05:19:36 15° 92° (E) 05:22:38 437.470
Cosmos 2499 18 Jan 05:21:53 05:24:40 12° 62° (ENE) 05:27:25 435.465 / 435.565
LilacSat-2 18 Jan 05:23:08 05:25:30 15° 93° (E) 05:27:51 437.200
CUSAT 1 18 Jan 05:24:55 05:26:30 11° 303° (WNW) 05:28:11 437.405
PHONESAT 2.4 18 Jan 05:25:42 05:27:57 47° 2° (N) 05:30:12 2401.200-2431.200
NOAA 18 18 Jan 05:41:57 05:44:40 14° 91° (E) 05:47:22 137.9125
STRAND 1 18 Jan 05:42:43 05:46:40 23° 66° (ENE) 05:50:38 437.568
DANDE 18 Jan 05:47:24 05:49:32 14° 297° (WNW) 05:52:00 436.750
DOVE 4 18 Jan 05:48:41 05:52:17 27° 96° (E) 05:55:48 437.250
AIST 2 18 Jan 05:52:06 05:56:03 38° 245° (WSW) 05:59:57 435.215
AO-7 18 Jan 05:55:02 06:00:55 22° 306° (NW) 06:06:47 29.400- 29.500
Cubesat XI-IV 18 Jan 05:57:22 06:02:18 38° 98° (E) 06:07:14 437.490
NOAA 15 18 Jan 06:15:41 06:20:57 60° 101° (ESE) 06:26:10 137.62
BRITE-PL 18 Jan 06:17:02 06:20:45 21° 295° (WNW) 06:24:15 437.365/2234.400
ISS 18 Jan 06:20:13 06:23:21 45° 223° (SW) 06:26:28 145.825
HORYU 2 18 Jan 06:24:29 06:28:30 34° 290° (WNW) 06:32:32 437.375
HO-68 18 Jan 06:27:54 06:32:11 17° 91° (E) 06:36:27 435.675
GONETS M04 18 Jan 06:32:51 06:41:06 41° 74° (ENE) 06:49:16
GOMX 1 18 Jan 06:33:59 06:37:57 31° 290° (WNW) 06:41:42 467.674
RS-15 18 Jan 06:47:12 06:57:23 28° 30° (NNE) 07:07:19 29.354- 29.394
O/OREOS (USA 219) 18 Jan 06:49:38 06:54:07 88° 107° (ESE) 06:58:37 437.305
CUTE-I 18 Jan 06:54:46 07:00:01 62° 287° (WNW) 07:05:17 437.470
LilacSat-2 18 Jan 06:56:23 06:59:51 32° 288° (WNW) 07:03:20 437.200
CANX-2 18 Jan 06:56:47 07:00:14 23° 95° (E) 07:03:39 2200.000
PHONESAT 2.4 18 Jan 06:59:53 07:02:10 64° 199° (SSW) 07:04:27 2401.200-2431.200
Cosmos 2499 18 Jan 07:11:48 07:19:00 84° 83° (E) 07:26:04 435.465 / 435.565
CUBEBUG 2 18 Jan 07:13:05 07:14:45 12° 91° (E) 07:16:27 437.445
SEEDS 18 Jan 07:13:35 07:16:44 20° 94° (E) 07:19:52 437.485
NOAA 18 18 Jan 07:20:22 07:25:48 69° 287° (WNW) 07:31:12 137.9125
STRAND 1 18 Jan 07:20:51 07:25:35 39° 262° (W) 07:30:21 437.568
COMPASS 1 18 Jan 07:24:17 07:27:03 17° 93° (E) 07:29:47 437.405
DOVE 4 18 Jan 07:26:38 07:29:51 21° 292° (WNW) 07:33:00 437.250
SO-50 18 Jan 07:33:42 07:37:35 26° 112° (ESE) 07:41:26 436.795
CINEMA 3 18 Jan 07:35:42 07:39:53 79° 282° (WNW) 07:44:09 145.822/145.860
Cubesat XI-IV 18 Jan 07:37:48 07:42:10 26° 294° (WNW) 07:46:31 437.490
AAUSAT CUBESAT 2 18 Jan 07:38:05 07:41:01 18° 93° (E) 07:43:56 437.432
UWE-3 18 Jan 07:45:47 07:48:48 18° 94° (E) 07:51:53 435.000/436.395/437.385
FUNcube-1 18 Jan 07:50:45 07:51:35 10° 91° (E) 07:52:26 145.935
NOAA 15 18 Jan 07:56:51 08:00:11 17° 298° (WNW) 08:03:32 137.62
CUTE 1.7 + AOD 2 18 Jan 08:03:11 08:07:27 69° 285° (WNW) 08:11:43 437.475
ZACube-1 18 Jan 08:10:09 08:13:25 20° 94° (E) 08:16:44 437.345
PRISM 18 Jan 08:11:23 08:15:14 37° 72° (ENE) 08:19:05 437.425
HO-68 18 Jan 08:13:25 08:20:37 81° 287° (WNW) 08:27:46 435.675
ANTELSAT 18 Jan 08:19:43 08:21:40 13° 65° (ENE) 08:23:37 437.575/2403.000
GONETS M04 18 Jan 08:29:46 08:37:49 42° 273° (W) 08:45:54
CANX-2 18 Jan 08:32:22 08:36:02 28° 290° (WNW) 08:39:41 2200.000
PHONESAT 2.4 18 Jan 08:35:44 08:35:59 10° 212° (SSW) 08:36:14 2401.200-2431.200
JAS-2 18 Jan 08:45:14 08:45:27 10° 55° (NE) 08:45:40 435.910
CUBEBUG 2 18 Jan 08:47:26 08:51:38 54° 285° (WNW) 08:55:58 437.445
SEEDS 18 Jan 08:48:41 08:52:27 31° 289° (WNW) 08:56:11 437.485
Oscar 11 18 Jan 08:50:37 08:54:51 48° 99° (E) 08:59:03 145.826/435.025
COMPASS 1 18 Jan 08:58:49 09:02:41 36° 288° (WNW) 09:06:32 437.405
RS-15 18 Jan 08:59:52 09:12:18 78° 57° (ENE) 09:24:12 29.354- 29.394
Cosmos 2499 18 Jan 09:07:47 09:11:00 14° 281° (WNW) 09:14:10 435.465 / 435.565
AAUSAT CUBESAT 2 18 Jan 09:12:47 09:16:33 32° 288° (WNW) 09:20:16 437.432
SO-50 18 Jan 09:13:33 09:17:53 35° 308° (NW) 09:22:11 436.795
DELFI C3 18 Jan 09:16:40 09:20:12 29° 97° (E) 09:23:40 145.870
UWE-3 18 Jan 09:21:21 09:25:20 36° 288° (WNW) 09:29:25 435.000/436.395/437.385
FUNcube-1 18 Jan 09:23:50 09:28:09 63° 285° (WNW) 09:32:33 145.935
UNISAT 6 18 Jan 09:24:53 09:29:08 73° 77° (ENE) 09:33:24 437.425
TIGRISAT 18 Jan 09:39:01 09:43:17 83° 258° (WSW) 09:47:33 435.000
ZACube-1 18 Jan 09:45:49 09:49:43 33° 289° (WNW) 09:53:42 437.345
PRISM 18 Jan 09:48:00 09:50:38 16° 266° (W) 09:53:16 437.425
QB50P1 18 Jan 09:49:34 09:51:11 12° 64° (ENE) 09:52:48 145.935-145.965
POLYITAN 1 18 Jan 09:52:33 09:54:30 13° 65° (ENE) 09:56:28 437.675
QB50P2 18 Jan 09:53:20 09:55:37 14° 66° (ENE) 09:57:55 145.880/145.840
ANTELSAT 18 Jan 09:53:45 09:57:55 51° 260° (W) 10:02:05 437.575/2403.000
HO-68 18 Jan 10:03:27 10:07:13 15° 306° (NW) 10:11:00 435.675
PCSat 18 Jan 10:07:54 10:13:12 51° 58° (ENE) 10:18:27 145.827
POPSAT HIP 1 18 Jan 10:14:23 10:17:38 22° 69° (ENE) 10:20:54 437.405
HUMSAT D 18 Jan 10:18:02 10:22:20 87° 107° (ESE) 10:26:37 437.325/437.525
JAS-2 18 Jan 10:24:11 10:29:25 83° 75° (ENE) 10:35:07 435.910
DUCHIFAT 1 18 Jan 10:27:58 10:31:29 27° 70° (ENE) 10:35:00 145.980
Oscar 11 18 Jan 10:28:08 10:30:33 15° 295° (WNW) 10:32:58 145.826/435.025
NANOSAT C BR1 18 Jan 10:31:57 10:35:42 33° 71° (ENE) 10:39:27 145.865
ESTCUBE 1 18 Jan 10:32:26 10:35:02 15° 92° (E) 10:37:37 437.505/2401.250
DELFI C3 18 Jan 10:51:55 10:54:46 19° 292° (WNW) 10:57:36 145.870
BUGSAT 1 18 Jan 11:12:18 11:15:52 30° 71° (ENE) 11:19:25 437.445
RS-15 18 Jan 11:13:53 11:23:28 29° 258° (WSW) 11:32:48 29.354- 29.394
QB50P1 18 Jan 11:22:20 11:26:27 55° 260° (W) 11:30:35 145.935-145.965
BY70-1 18 Jan 11:24:16 11:27:32 49° 286° (WNW) 11:30:39 436.1900
POLYITAN 1 18 Jan 11:25:47 11:29:51 50° 260° (W) 11:33:57 437.675
QB50P2 18 Jan 11:27:00 11:31:01 45° 261° (W) 11:35:04 145.880/145.840
DX 1 18 Jan 11:35:28 11:36:38 11° 91° (E) 11:37:49 434.975-435.025
SPROUT 18 Jan 11:40:07 11:43:20 21° 95° (E) 11:46:32 437.525
Gurwin Techsat 1B 18 Jan 11:43:35 11:45:12 11° 59° (ENE) 11:46:49 435.225
CUBEBUG 1 18 Jan 11:45:25 11:49:41 56° 100° (E) 11:53:54 437.445
Oscar 19 18 Jan 11:45:36 11:49:34 23° 65° (ENE) 11:53:33 437.125/150
POPSAT HIP 1 18 Jan 11:49:40 11:53:16 27° 264° (W) 11:56:52 437.405
PCSat 18 Jan 11:52:15 11:56:10 21° 254° (WSW) 12:00:04 145.827
AISAT 18 Jan 11:55:35 11:59:49 45° 100° (E) 12:04:00 437.250
DUCHIFAT 1 18 Jan 12:03:51 12:07:07 22° 265° (W) 12:10:24 145.980
ESTCUBE 1 18 Jan 12:07:42 12:12:04 47° 287° (WNW) 12:16:23 437.505/2401.250
NANOSAT C BR1 18 Jan 12:08:34 12:11:28 18° 266° (W) 12:14:23 145.865
50 SAT 18 Jan 12:11:41 12:15:10 50° 100° (E) 12:18:37 437.505
VELOX 1 18 Jan 12:29:00 12:33:24 78° 286° (WNW) 12:37:47 145.980
CUSAT 1 18 Jan 12:33:06 12:36:32 13° 59° (ENE) 12:39:56 437.405
Cosmos 2491 18 Jan 12:43:49 12:51:59 40° 74° (ENE) 13:00:06 435.465 / 435.565
BUGSAT 1 18 Jan 12:48:20 12:51:15 19° 265° (W) 12:54:10 437.445
YUBILEINY 18 Jan 12:52:21 12:57:47 18° 78° (ENE) 13:03:13 435.215
AO-7 18 Jan 13:08:16 13:14:16 23° 54° (NE) 13:20:17 29.400- 29.500
DX 1 18 Jan 13:08:54 13:13:10 58° 286° (WNW) 13:17:25 434.975-435.025
UKube-1 18 Jan 13:12:35 13:16:53 74° 286° (WNW) 13:21:10 .
SPROUT 18 Jan 13:15:33 13:19:15 30° 290° (WNW) 13:22:57 437.525
TISAT 1 18 Jan 13:15:48 13:19:36 33° 98° (E) 13:23:23 437.305
AO-85 18 Jan 13:17:23 13:20:48 20° 112° (ESE) 13:24:04 145.980
Gurwin Techsat 1B 18 Jan 13:19:01 13:24:20 90° 74° (ENE) 13:29:41 435.225
CUBEBUG 1 18 Jan 13:23:35 13:25:27 13° 296° (WNW) 13:27:18 437.445
Oscar 19 18 Jan 13:23:41 13:28:35 42° 261° (W) 13:33:32 437.125/150
AISAT 18 Jan 13:33:16 13:35:52 16° 295° (WNW) 13:38:28 437.250
Cosmos 2504 18 Jan 13:36:52 13:42:26 19° 80° (E) 13:47:49 435.465 / 435.565
AIST 1 18 Jan 13:41:16 13:45:17 36° 91° (E) 13:49:17
ITUPSAT 1 18 Jan 13:51:52 13:54:54 17° 93° (E) 13:57:55 437.325
ITAMSAT 1 18 Jan 14:01:30 14:06:25 46° 71° (ENE) 14:11:20 435.822/435.867
CUSAT 1 18 Jan 14:12:00 14:19:58 66° 78° (ENE) 14:27:24 437.405
BEESAT 18 Jan 14:26:52 14:31:22 39° 99° (E) 14:35:50 436.000
SWISSCUBE 18 Jan 14:28:10 14:32:48 46° 100° (E) 14:37:23 437.505
DANDE 18 Jan 14:39:03 14:46:17 42° 75° (ENE) 14:54:04 436.750
Cosmos 2491 18 Jan 14:40:43 14:48:45 42° 273° (W) 14:56:48 435.465 / 435.565
MOZHAYETS 4 18 Jan 14:43:05 14:46:10 17° 93° (E) 14:49:12
YUBILEINY 18 Jan 14:44:33 14:53:21 84° 276° (W) 15:02:16 435.215
TISAT 1 18 Jan 14:52:05 14:54:58 18° 293° (WNW) 14:57:51 437.305
AO-85 18 Jan 14:56:28 15:00:59 43° 305° (NW) 15:05:12 145.980
AO-7 18 Jan 14:57:42 15:06:04 83° 253° (WSW) 15:14:30 29.400- 29.500
AIST 1 18 Jan 15:20:05 15:22:59 17° 287° (WNW) 15:25:52
O/OREOS (USA 219) 18 Jan 15:23:29 15:25:41 13° 55° (NE) 15:27:52 437.305
Cosmos 2504 18 Jan 15:26:04 15:34:52 82° 277° (W) 15:43:13 435.465 / 435.565
ITUPSAT 1 18 Jan 15:28:19 15:32:57 48° 288° (WNW) 15:37:33 437.325
KKS-1 18 Jan 15:38:34 15:41:48 20° 94° (E) 15:45:02 437.445
M-CUBED/EXP-1 PRIME 18 Jan 15:40:44 15:43:12 19° 100° (E) 15:45:35 437.505
ITAMSAT 1 18 Jan 15:42:22 15:46:04 20° 266° (W) 15:49:47 435.822/435.867
BRITE-PL 18 Jan 15:45:48 15:51:05 42° 71° (ENE) 15:56:23 437.365/2234.400
HORYU 2 18 Jan 15:45:53 15:48:38 16° 65° (ENE) 15:51:23 437.375
BEESAT 3 18 Jan 15:51:22 15:54:08 19° 111° (ESE) 15:56:57 437.485
CUSAT 1 18 Jan 15:55:02 16:01:12 26° 276° (W) 16:07:04 437.405
JUGNU 18 Jan 15:56:18 15:58:15 12° 176° (S) 16:00:13 437.505
NOAA 15 18 Jan 15:59:47 16:00:34 10° 58° (ENE) 16:01:23 137.62
GOMX 1 18 Jan 16:02:05 16:06:24 25° 68° (ENE) 16:10:35 467.674
BEESAT 18 Jan 16:05:19 16:08:51 21° 294° (WNW) 16:12:23 436.000
SO-50 18 Jan 16:06:26 16:09:29 17° 45° (NE) 16:12:29 436.795
SWISSCUBE 18 Jan 16:06:57 16:10:13 18° 295° (WNW) 16:13:27 437.505
AUBIESAT-1 18 Jan 16:18:36 16:21:54 50° 105° (ESE) 16:25:06 437.475
MOZHAYETS 4 18 Jan 16:19:05 16:23:29 43° 288° (WNW) 16:27:52
DANDE 18 Jan 16:21:45 16:28:57 43° 269° (W) 16:36:39 436.750
BEESAT 2 18 Jan 16:31:04 16:34:09 22° 112° (ESE) 16:37:16 435.950
CUTE-I 18 Jan 16:36:40 16:40:45 23° 65° (ENE) 16:44:50 437.470
STARS 18 Jan 16:37:05 16:41:12 39° 99° (E) 16:45:17 437.465
YUBILEINY 18 Jan 16:46:28 16:51:33 16° 298° (WNW) 16:56:41 435.215
DOVE 4 18 Jan 16:52:03 16:56:20 28° 70° (ENE) 17:00:26 437.250
AO-7 18 Jan 16:55:42 16:59:54 15° 270° (W) 17:04:08 29.400- 29.500
HO-68 18 Jan 16:58:10 17:00:33 12° 52° (NE) 17:02:55 435.675
CUBESAT XI-V 18 Jan 16:58:47 17:03:30 74° 102° (ESE) 17:08:09 437.345
O/OREOS (USA 219) 18 Jan 17:01:03 17:05:30 62° 252° (WSW) 17:09:57 437.305
NOAA 18 18 Jan 17:06:04 17:10:27 25° 65° (ENE) 17:14:51 137.9125
KKS-1 18 Jan 17:14:26 17:18:25 34° 290° (WNW) 17:22:24 437.445
M-CUBED/EXP-1 PRIME 18 Jan 17:15:08 17:17:37 19° 296° (WNW) 17:20:02 437.505
Cubesat XI-IV 18 Jan 17:17:50 17:23:00 54° 72° (ENE) 17:28:11 437.490
HORYU 2 18 Jan 17:20:37 17:24:48 43° 261° (W) 17:29:02 437.375
Cosmos 2504 18 Jan 17:24:42 17:29:24 15° 296° (WNW) 17:34:01 435.465 / 435.565
BRITE-PL 18 Jan 17:24:55 17:29:36 26° 266° (W) 17:34:19 437.365/2234.400
BEESAT 3 18 Jan 17:28:00 17:31:31 32° 307° (NW) 17:35:05 437.485
NOAA 15 18 Jan 17:34:11 17:39:28 83° 75° (ENE) 17:44:49 137.62
LilacSat-2 18 Jan 17:36:10 17:39:55 86° 258° (WSW) 17:43:43 437.200
GOMX 1 18 Jan 17:39:04 17:44:12 41° 262° (W) 17:49:11 467.674
JUGNU 18 Jan 17:44:59 17:46:22 11° 187° (S) 17:47:43 437.505
SO-50 18 Jan 17:45:53 17:50:17 56° 243° (WSW) 17:54:38 436.795
CANX-2 18 Jan 17:49:13 17:51:31 14° 66° (ENE) 17:53:49 2200.000
Cosmos 2499 18 Jan 17:59:06 18:01:40 12° 77° (ENE) 18:04:11 435.465 / 435.565
SEEDS 18 Jan 18:05:20 18:07:01 12° 64° (ENE) 18:08:43 437.485
BEESAT 2 18 Jan 18:08:19 18:11:47 29° 308° (NW) 18:15:16 435.950
STARS 18 Jan 18:14:19 18:17:14 18° 294° (WNW) 18:20:08 437.465
CUTE-I 18 Jan 18:15:28 18:20:29 43° 261° (W) 18:25:32 437.470
COMPASS 1 18 Jan 18:16:14 18:16:27 10° 63° (ENE) 18:16:42 437.405
AAUSAT CUBESAT 2 18 Jan 18:28:45 18:29:50 11° 64° (ENE) 18:30:53 437.432
DOVE 4 18 Jan 18:29:27 18:33:54 30° 263° (W) 18:38:10 437.250
CINEMA 3 18 Jan 18:35:30 18:40:00 77° 77° (ENE) 18:44:19 145.822/145.860
CUBESAT XI-V 18 Jan 18:38:45 18:40:13 11° 298° (WNW) 18:41:39 437.345
HO-68 18 Jan 18:39:48 18:46:53 66° 71° (ENE) 18:54:01 435.675
UWE-3 18 Jan 18:43:07 18:44:40 12° 65° (ENE) 18:46:14 435.000/436.395/437.385
NOAA 18 18 Jan 18:45:40 18:50:51 42° 261° (W) 18:56:02 137.9125
CUTE 1.7 + AOD 2 18 Jan 18:53:53 18:58:05 67° 76° (ENE) 19:02:20 437.475
Cubesat XI-IV 18 Jan 18:59:56 19:03:22 17° 267° (W) 19:06:49 437.490
ZACube-1 18 Jan 19:06:05 19:07:58 13° 65° (ENE) 19:09:50 437.345
SRMSAT 18 Jan 19:09:40 19:11:56 12° 181° (S) 19:14:13 437.500
NOAA 15 18 Jan 19:18:44 19:19:50 11° 271° (W) 19:20:57 137.62
CANX-2 18 Jan 19:22:52 19:26:56 46° 261° (W) 19:31:03 2200.000
GONETS M04 18 Jan 19:31:56 19:40:08 49° 89° (E) 19:48:24
STRAND 1 18 Jan 19:32:13 19:37:23 79° 104° (ESE) 19:42:31 437.568
SEEDS 18 Jan 19:38:04 19:42:11 55° 260° (W) 19:46:22 437.485
CUBEBUG 2 18 Jan 19:43:52 19:48:04 80° 258° (WSW) 19:52:14 437.445
Oscar 11 18 Jan 19:44:01 19:47:46 30° 71° (ENE) 19:51:35 145.826/435.025
Cosmos 2499 18 Jan 19:44:59 19:53:30 74° 94° (E) 20:01:27 435.465 / 435.565
COMPASS 1 18 Jan 19:47:14 19:51:23 67° 258° (WSW) 19:55:36 437.405
AIST 2 18 Jan 19:47:34 19:51:36 61° 118° (ESE) 19:55:43 435.215
AAUSAT CUBESAT 2 18 Jan 20:00:37 20:04:44 61° 260° (W) 20:08:53 437.432
DELFI C3 18 Jan 20:01:52 20:04:09 15° 67° (ENE) 20:06:28 145.870
UWE-3 18 Jan 20:16:36 20:20:39 53° 260° (W) 20:24:43 435.000/436.395/437.385
FUNcube-1 18 Jan 20:17:41 20:21:47 81° 79° (E) 20:25:57 145.935
HO-68 18 Jan 20:29:46 20:35:04 22° 267° (W) 20:40:24 435.675
ZACube-1 18 Jan 20:39:48 20:43:48 48° 260° (W) 20:47:50 437.345
HUMSAT D 18 Jan 21:07:37 21:11:31 46° 73° (ENE) 21:15:29 437.325/437.525
STRAND 1 18 Jan 21:13:44 21:15:51 13° 299° (WNW) 21:17:57 437.568
UNISAT 6 18 Jan 21:18:41 21:21:35 17° 93° (E) 21:24:31 437.425
Oscar 11 18 Jan 21:20:39 21:23:55 21° 266° (W) 21:27:13 145.826/435.025
ISS 18 Jan 21:25:07 21:25:58 11° 128° (SE) 21:26:49 145.825
AIST 2 18 Jan 21:28:09 21:30:29 14° 316° (NW) 21:32:48 435.215
PRISM 18 Jan 21:28:56 21:33:04 75° 102° (ESE) 21:37:08 437.425
GONETS M04 18 Jan 21:29:26 21:37:08 34° 288° (WNW) 21:44:56
ESTCUBE 1 18 Jan 21:31:32 21:33:28 13° 63° (ENE) 21:35:23 437.505/2401.250
TIGRISAT 18 Jan 21:32:10 21:35:38 22° 95° (E) 21:39:08 435.000
DELFI C3 18 Jan 21:34:51 21:38:36 39° 262° (W) 21:42:24 145.870
JAS-2 18 Jan 21:35:19 21:39:12 15° 89° (E) 21:43:10 435.910
BY70-1 18 Jan 21:38:18 21:40:28 19° 69° (ENE) 21:42:46 436.1900
Cosmos 2499 18 Jan 21:41:10 21:47:15 22° 291° (WNW) 21:53:07 435.465 / 435.565
ANTELSAT 18 Jan 21:46:27 21:50:30 34° 98° (E) 21:54:37 437.575/2403.000
AO-85 18 Jan 21:51:09 21:52:03 11° 42° (NE) 21:52:56 145.980
SPROUT 18 Jan 22:33:10 22:35:25 14° 65° (ENE) 22:37:39 437.525
CUBEBUG 1 18 Jan 22:39:42 22:43:47 38° 72° (ENE) 22:47:53 437.445
HUMSAT D 18 Jan 22:45:42 22:47:23 12° 269° (W) 22:49:05 437.325/437.525
50 SAT 18 Jan 22:45:50 22:48:10 17° 68° (ENE) 22:50:31 437.505
AISAT 18 Jan 22:51:21 22:55:21 34° 71° (ENE) 22:59:22 437.250
UNISAT 6 18 Jan 22:54:17 22:58:25 40° 288° (WNW) 23:02:39 437.425
ISS 18 Jan 22:58:47 23:02:01 69° 322° (NW) 23:05:17 145.825
ESTCUBE 1 18 Jan 23:05:13 23:09:42 63° 259° (W) 23:14:13 437.505/2401.250
TIGRISAT 18 Jan 23:08:25 23:12:18 31° 289° (WNW) 23:16:15 435.000
QB50P1 18 Jan 23:08:43 23:12:11 25° 96° (E) 23:15:40 145.935-145.965
BY70-1 18 Jan 23:08:57 23:10:47 15° 267° (W) 23:12:43 436.1900
POLYITAN 1 18 Jan 23:12:10 23:15:47 27° 96° (E) 23:19:24 437.675
QB50P2 18 Jan 23:13:15 23:17:00 30° 97° (E) 23:20:43 145.880/145.840
JAS-2 18 Jan 23:17:37 23:24:49 86° 104° (ESE) 23:32:37 435.910
RS-15 18 Jan 23:20:05 23:31:27 59° 111° (ESE) 23:43:20 29.354- 29.394
ANTELSAT 18 Jan 23:23:41 23:26:59 21° 292° (WNW) 23:30:20 437.575/2403.000
VELOX 1 18 Jan 23:24:20 23:28:46 76° 77° (ENE) 23:33:14 145.980
AO-85 18 Jan 23:29:04 23:32:58 77° 241° (WSW) 23:36:52 145.980
POPSAT HIP 1 18 Jan 23:34:59 23:39:04 49° 100° (E) 23:43:10 437.405
DUCHIFAT 1 18 Jan 23:48:01 23:52:11 60° 101° (E) 23:56:19 145.980
NANOSAT C BR1 18 Jan 23:52:35 23:56:47 77° 101° (E) 00:01:00 145.865
DX 1 19 Jan 00:02:26 00:06:48 84° 254° (WSW) 00:11:13 434.975-435.025
UKube-1 19 Jan 00:05:09 00:09:28 76° 75° (ENE) 00:13:47 .
TISAT 1 19 Jan 00:06:22 00:09:33 22° 68° (ENE) 00:12:44 437.305
SPROUT 19 Jan 00:06:48 00:10:54 47° 261° (W) 00:15:02 437.525
CUBEBUG 1 19 Jan 00:17:13 00:20:11 17° 267° (W) 00:23:08 437.445
50 SAT 19 Jan 00:18:07 00:21:09 26° 263° (W) 00:24:14 437.505
